Time,TemperatureF,DewpointF,PressureIn,WindDirection,WindDirectionDegrees,WindSpeedMPH,WindSpeedGustMPH,Humidity,HourlyPrecipIn,Conditions,Clouds,dailyrainin,SoftwareType,DateUTC
2014-01-10 00:12:00,45.0,43.0,30.36,NE,53,1.0,10.0,94,0.00,,,0.00,,2014-01-10 06:12:00,
2014-01-10 00:22:00,45.0,43.0,30.36,ESE,119,1.0,7.0,94,0.00,,,0.00,,2014-01-10 06:22:00,
2014-01-10 00:43:00,45.0,43.0,30.35,ENE,58,2.0,7.0,94,0.00,,,0.00,,2014-01-10 06:43:00,
2014-01-10 00:52:00,45.0,43.0,30.36,ENE,78,1.0,4.0,94,0.00,,,0.00,,2014-01-10 06:52:00,
2014-01-10 01:12:00,45.0,43.0,30.37,SSE,161,1.0,3.0,94,0.00,,,0.00,,2014-01-10 07:12:00,
2014-01-10 01:22:00,45.0,43.0,30.36,ESE,119,1.0,3.0,94,0.00,,,0.00,,2014-01-10 07:22:00,
2014-01-10 01:42:00,45.0,43.0,30.35,ESE,108,1.0,5.0,94,0.00,,,0.00,,2014-01-10 07:42:00,
2014-01-10 01:52:00,45.0,43.0,30.35,ESE,115,2.0,5.0,94,0.00,,,0.00,,2014-01-10 07:52:00,
2014-01-10 02:11:00,45.0,44.0,30.35,NE,42,0.0,2.0,95,0.00,,,0.00,,2014-01-10 08:11:00,
2014-01-10 02:22:00,45.0,44.0,30.34,ESE,109,0.0,3.0,95,0.00,,,0.00,,2014-01-10 08:22:00,
2014-01-10 02:42:00,45.0,44.0,30.33,ENE,74,0.0,2.0,96,0.00,,,0.00,,2014-01-10 08:42:00,
2014-01-10 02:53:00,45.0,44.0,30.32,SE,125,0.0,2.0,96,0.00,,,0.00,,2014-01-10 08:53:00,
2014-01-10 03:11:00,45.0,44.0,30.33,SE,125,0.0,1.0,96,0.00,,,0.00,,2014-01-10 09:11:00,
2014-01-10 03:22:00,45.0,44.0,30.32,SE,125,0.0,2.0,96,0.00,,,0.00,,2014-01-10 09:22:00,
2014-01-10 03:43:00,45.0,44.0,30.32,SE,125,0.0,1.0,96,0.00,,,0.00,,2014-01-10 09:43:00,
2014-01-10 03:54:00,45.0,44.0,30.32,SE,126,0.0,2.0,96,0.00,,,0.00,,2014-01-10 09:54:00,
2014-01-10 04:13:00,45.0,44.0,30.31,East,86,0.0,1.0,96,0.00,,,0.00,,2014-01-10 10:13:00,
2014-01-10 04:23:00,45.0,44.0,30.30,East,86,0.0,0.0,96,0.00,,,0.00,,2014-01-10 10:23:00,
2014-01-10 04:42:00,45.0,44.0,30.30,ENE,70,0.0,3.0,96,0.00,,,0.00,,2014-01-10 10:42:00,
2014-01-10 04:52:00,45.0,44.0,30.30,NE,54,0.0,1.0,96,0.00,,,0.00,,2014-01-10 10:52:00,
2014-01-10 05:11:00,45.0,44.0,30.30,NE,54,0.0,1.0,97,0.00,,,0.00,,2014-01-10 11:11:00,
2014-01-10 05:22:00,45.0,44.0,30.29,ENE,59,0.0,2.0,97,0.00,,,0.00,,2014-01-10 11:22:00,
2014-01-10 05:42:00,45.0,44.0,30.29,ENE,59,0.0,2.0,97,0.01,,,0.01,,2014-01-10 11:42:00,
2014-01-10 05:54:00,45.0,44.0,30.29,East,98,1.0,3.0,97,0.01,,,0.01,,2014-01-10 11:54:00,
2014-01-10 06:11:00,45.0,44.0,30.28,East,98,0.0,2.0,97,0.01,,,0.01,,2014-01-10 12:11:00,
2014-01-10 06:22:00,44.0,43.0,30.28,ESE,115,1.0,3.0,97,0.01,,,0.01,,2014-01-10 12:22:00,
2014-01-10 06:42:00,44.0,43.0,30.27,NNE,27,0.0,3.0,97,0.00,,,0.01,,2014-01-10 12:42:00,
2014-01-10 06:52:00,44.0,43.0,30.28,ESE,102,0.0,4.0,97,0.00,,,0.01,,2014-01-10 12:52:00,
2014-01-10 07:11:00,44.0,43.0,30.28,East,81,0.0,1.0,97,0.00,,,0.01,,2014-01-10 13:11:00,
2014-01-10 07:22:00,44.0,43.0,30.28,ENE,66,0.0,1.0,97,0.00,,,0.01,,2014-01-10 13:22:00,
2014-01-10 07:42:00,44.0,43.0,30.29,ENE,66,0.0,0.0,97,0.00,,,0.01,,2014-01-10 13:42:00,
2014-01-10 07:52:00,44.0,43.0,30.28,ENE,66,0.0,2.0,97,0.00,,,0.01,,2014-01-10 13:52:00,
2014-01-10 08:11:00,44.0,43.0,30.29,ENE,66,0.0,0.0,97,0.00,,,0.01,,2014-01-10 14:11:00,
2014-01-10 08:22:00,44.0,43.0,30.28,East,101,0.0,2.0,97,0.00,,,0.01,,2014-01-10 14:22:00,
2014-01-10 08:42:00,45.0,44.0,30.29,East,100,1.0,3.0,97,0.00,,,0.01,,2014-01-10 14:42:00,
2014-01-10 08:52:00,45.0,44.0,30.29,ESE,109,0.0,2.0,97,0.00,,,0.01,,2014-01-10 14:52:00,
2014-01-10 09:11:00,45.0,44.0,30.29,ESE,109,0.0,0.0,97,0.00,,,0.01,,2014-01-10 15:11:00,
2014-01-10 09:22:00,45.0,44.0,30.29,ESE,103,0.0,3.0,97,0.00,,,0.01,,2014-01-10 15:22:00,
2014-01-10 09:43:00,45.0,44.0,30.29,ESE,103,0.0,2.0,97,0.00,,,0.01,,2014-01-10 15:43:00,
2014-01-10 09:53:00,46.0,45.0,30.28,ESE,113,0.0,3.0,97,0.00,,,0.01,,2014-01-10 15:53:00,
2014-01-10 10:13:00,46.0,45.0,30.27,ESE,109,0.0,2.0,97,0.00,,,0.01,,2014-01-10 16:13:00,
2014-01-10 10:23:00,47.0,46.0,30.27,ESE,123,0.0,1.0,97,0.00,,,0.01,,2014-01-10 16:23:00,
2014-01-10 10:43:00,47.0,46.0,30.26,ESE,121,0.0,3.0,96,0.00,,,0.01,,2014-01-10 16:43:00,
2014-01-10 10:52:00,47.0,46.0,30.26,ESE,121,0.0,3.0,96,0.00,,,0.01,,2014-01-10 16:52:00,
2014-01-10 11:12:00,48.0,47.0,30.25,ESE,121,0.0,4.0,95,0.00,,,0.01,,2014-01-10 17:12:00,
2014-01-10 11:22:00,48.0,46.0,30.23,ESE,103,1.0,7.0,94,0.00,,,0.01,,2014-01-10 17:22:00,
2014-01-10 11:43:00,48.0,47.0,30.22,East,86,1.0,6.0,95,0.00,,,0.01,,2014-01-10 17:43:00,
2014-01-10 11:53:00,48.0,47.0,30.20,SE,124,1.0,4.0,95,0.00,,,0.01,,2014-01-10 17:53:00,
2014-01-10 12:12:00,48.0,47.0,30.19,South,176,0.0,2.0,95,0.00,,,0.01,,2014-01-10 18:12:00,
2014-01-10 12:22:00,49.0,48.0,30.18,South,188,0.0,3.0,95,0.00,,,0.01,,2014-01-10 18:22:00,
2014-01-10 12:42:00,49.0,47.0,30.17,SSE,153,2.0,6.0,94,0.00,,,0.01,,2014-01-10 18:42:00,
2014-01-10 12:52:00,49.0,48.0,30.16,ESE,105,1.0,3.0,95,0.00,,,0.01,,2014-01-10 18:52:00,
2014-01-10 13:12:00,50.0,48.0,30.15,ESE,109,3.0,6.0,94,0.00,,,0.01,,2014-01-10 19:12:00,
2014-01-10 13:21:00,50.0,48.0,30.14,SE,143,1.0,5.0,94,0.00,,,0.01,,2014-01-10 19:21:00,
2014-01-10 13:42:00,51.0,49.0,30.14,SE,124,2.0,4.0,93,0.00,,,0.01,,2014-01-10 19:42:00,
2014-01-10 13:52:00,51.0,49.0,30.14,SE,124,2.0,4.0,93,0.00,,,0.01,,2014-01-10 19:52:00,
2014-01-10 14:12:00,51.0,49.0,30.12,ESE,116,1.0,4.0,93,0.00,,,0.01,,2014-01-10 20:12:00,
2014-01-10 14:22:00,51.0,49.0,30.11,ESE,120,2.0,6.0,93,0.00,,,0.01,,2014-01-10 20:22:00,
2014-01-10 14:42:00,51.0,49.0,30.11,South,174,1.0,6.0,93,0.00,,,0.01,,2014-01-10 20:42:00,
2014-01-10 14:52:00,51.0,49.0,30.11,South,177,1.0,5.0,94,0.00,,,0.01,,2014-01-10 20:52:00,
2014-01-10 15:12:00,51.0,49.0,30.11,SW,217,2.0,6.0,94,0.00,,,0.01,,2014-01-10 21:12:00,
2014-01-10 15:21:00,51.0,49.0,30.11,ESE,109,1.0,4.0,94,0.00,,,0.01,,2014-01-10 21:21:00,
2014-01-10 15:43:00,51.0,49.0,30.11,ESE,117,0.0,3.0,93,0.00,,,0.01,,2014-01-10 21:43:00,
2014-01-10 15:53:00,51.0,49.0,30.10,SSE,157,2.0,4.0,93,0.00,,,0.01,,2014-01-10 21:53:00,
2014-01-10 16:13:00,51.0,49.0,30.10,SE,130,0.0,2.0,93,0.00,,,0.01,,2014-01-10 22:13:00,
2014-01-10 16:22:00,52.0,50.0,30.09,SE,140,2.0,3.0,93,0.00,,,0.01,,2014-01-10 22:22:00,
2014-01-10 16:43:00,52.0,50.0,30.09,SSE,155,1.0,6.0,93,0.00,,,0.01,,2014-01-10 22:43:00,
2014-01-10 16:53:00,52.0,50.0,30.09,SE,144,2.0,6.0,93,0.00,,,0.01,,2014-01-10 22:53:00,
2014-01-10 17:12:00,52.0,50.0,30.08,ESE,109,2.0,8.0,93,0.00,,,0.01,,2014-01-10 23:12:00,
2014-01-10 17:22:00,52.0,50.0,30.08,ESE,117,1.0,7.0,94,0.00,,,0.01,,2014-01-10 23:22:00,
2014-01-10 17:42:00,52.0,50.0,30.07,South,183,2.0,5.0,94,0.00,,,0.01,,2014-01-10 23:42:00,
2014-01-10 17:52:00,52.0,50.0,30.08,SE,142,0.0,1.0,94,0.00,,,0.01,,2014-01-10 23:52:00,
2014-01-10 18:12:00,52.0,50.0,30.08,South,170,1.0,4.0,94,0.00,,,0.01,,2014-01-11 00:12:00,
2014-01-10 18:22:00,52.0,50.0,30.07,SE,141,3.0,7.0,94,0.00,,,0.01,,2014-01-11 00:22:00,
2014-01-10 18:42:00,52.0,51.0,30.07,ESE,118,2.0,8.0,95,0.00,,,0.01,,2014-01-11 00:42:00,
2014-01-10 18:52:00,52.0,51.0,30.07,ESE,119,0.0,3.0,95,0.00,,,0.01,,2014-01-11 00:52:00,
2014-01-10 19:12:00,52.0,51.0,30.08,SSE,154,0.0,3.0,95,0.00,,,0.01,,2014-01-11 01:12:00,
2014-01-10 19:22:00,53.0,52.0,30.07,SE,126,1.0,6.0,95,0.00,,,0.01,,2014-01-11 01:22:00,
2014-01-10 19:42:00,53.0,52.0,30.08,ESE,113,1.0,3.0,95,0.00,,,0.01,,2014-01-11 01:42:00,
2014-01-10 19:52:00,53.0,52.0,30.08,ESE,117,0.0,2.0,95,0.00,,,0.01,,2014-01-11 01:52:00,
2014-01-10 20:12:00,53.0,52.0,30.07,SE,126,1.0,3.0,96,0.00,,,0.01,,2014-01-11 02:12:00,
2014-01-10 20:22:00,52.0,51.0,30.06,SE,135,1.0,2.0,96,0.00,,,0.01,,2014-01-11 02:22:00,
2014-01-10 20:42:00,53.0,52.0,30.05,SE,130,0.0,2.0,97,0.00,,,0.01,,2014-01-11 02:42:00,
2014-01-10 20:52:00,53.0,52.0,30.05,SE,132,1.0,4.0,97,0.00,,,0.01,,2014-01-11 02:52:00,
2014-01-10 21:11:00,53.0,52.0,30.04,SW,223,1.0,6.0,97,0.00,,,0.01,,2014-01-11 03:11:00,
2014-01-10 21:22:00,53.0,52.0,30.04,SE,126,0.0,3.0,97,0.00,,,0.01,,2014-01-11 03:22:00,
2014-01-10 21:43:00,53.0,52.0,30.04,South,182,1.0,4.0,98,0.00,,,0.01,,2014-01-11 03:43:00,
2014-01-10 21:54:00,53.0,52.0,30.05,ESE,111,0.0,5.0,98,0.00,,,0.01,,2014-01-11 03:54:00,
2014-01-10 22:13:00,53.0,52.0,30.04,SSE,150,1.0,3.0,98,0.00,,,0.01,,2014-01-11 04:13:00,
2014-01-10 22:23:00,54.0,53.0,30.02,SE,126,0.0,2.0,98,0.00,,,0.01,,2014-01-11 04:23:00,
2014-01-10 22:42:00,54.0,53.0,30.01,WNW,298,1.0,13.0,98,0.00,,,0.01,,2014-01-11 04:42:00,
2014-01-10 22:53:00,55.0,54.0,30.00,West,262,1.0,7.0,98,0.00,,,0.01,,2014-01-11 04:53:00,
2014-01-10 23:12:00,55.0,54.0,29.99,South,176,1.0,8.0,98,0.00,,,0.01,,2014-01-11 05:12:00,
2014-01-10 23:22:00,56.0,55.0,29.98,NW,312,3.0,8.0,98,0.00,,,0.01,,2014-01-11 05:22:00,
2014-01-10 23:43:00,56.0,55.0,29.97,South,187,1.0,10.0,97,0.00,,,0.01,,2014-01-11 05:43:00,
2014-01-10 23:53:00,56.0,55.0,29.96,SE,129,5.0,11.0,98,0.00,,,0.01,,2014-01-11 05:53:00,